星链-32412 (STARLINK-32412)

导读

STARLINK-32412(星链-32412)是美国SpaceX星链项目的低轨通信卫星,于2024年10月26日发射,属于第三代星链卫星群。它运行在近地轨道,为全球提供高速低延迟互联网服务,助力填补偏远地区网络覆盖空白,完善全球卫星互联网组网,目前该卫星保持在轨运行状态,是星链星座规模扩张的重要组成部分。

基本信息
目录编号:
61680
目录名称:
STARLINK-32412
国际标识:
2024-193V
轨道中心:
EARTH
卫星名称:
星链-32412
卫星全名:
星链-32412 (STARLINK-32412)
卫星状态:
在轨 (已飞行678 天)
发射日期:
2024-10-26 UTC
国别 :
美国 (US)
星等 :
--
轨道信息
数据来源 国际轨道数据
星历时间: 2026-09-03T15:05:16+0800
22小时前
查看轨道信息
半长轴: 6848.879km
偏心率: 0.0001295
轨道倾角: 53.163°
近地点辐角 86.200°
升交点赤经 344.994°
平近点角 273.915°
近地点: 469.855km
远地点: 471.629km
周期: 94.013分钟
每日圈数: 15.316995
详细信息
固有亮度:
5
最大亮度:
2.5
卫星平台:
Starlink V1.0
覆盖范围:
全球
运营商:
太空探索技术公司
运营商所在国:
美国
制造商(研发单位):
太空探索技术公司
制造商所在国:
美国
使用方式:
暂无
卫星简介
Starlink 计划是 SpaceX 推出的全球卫星互联网项目,通过发射低轨道卫星,为全球尤其是偏远地区提供高速、低延迟的互联网服务。自 2019 年起,Starlink 已部署数千颗卫星,旨在缩小全球数字鸿沟,推动互联网普及。该项目还为军事、航空等行业提供通信支持,带来广泛经济效益。
2D轨道图
3D轨道图
轨道高度分析图
轨道倾角分析图
轨道综合分析图
查看轨道综合分析图
交会数据列表
事件ID 空间交会对象 最接近时刻(TCA) 交会距离 交会风险概率(CRP) 交会风险指数(CRI) 操作
CDM_260903-175706-168006-267423
2026-09-03T
17:57:58+0000
0.477 km
远距离
1.339015E-4 高风险 0.78
CDM_260905-001804-975006-168021
2026-09-05T
00:18:08+0000
0.518 km
远距离
1.248043E-4 高风险 0.77
CDM_260904-123304-975006-168021
2026-09-04T
12:33:27+0000
1.004 km
极远距离
1.644963E-5 中风险 0.59
CDM_260903-205006-168006-903021
2026-09-03T
20:50:26+0000
2.755 km
极远距离
1.389105E-6 低风险 0.38
CDM_260903-183206-168006-866221
2026-09-03T
18:32:36+0000
2.948 km
极远距离
1.313163E-6 低风险 0.37
CDM_260904-224404-975006-168021
2026-09-04T
22:44:10+0000
2.352 km
极远距离
1.308619E-6 低风险 0.37
CDM_260903-191306-168006-890922
2026-09-03T
19:13:13+0000
2.811 km
极远距离
1.276379E-6 低风险 0.37
CDM_260904-105904-975006-168021
2026-09-04T
10:59:29+0000
2.522 km
极远距离
1.154175E-6 低风险 0.36
CDM_260904-140704-975006-168021
2026-09-04T
14:07:24+0000
2.739 km
极远距离
1.017443E-6 低风险 0.35
CDM_260830-065306-168006-840021
2026-08-30T
06:53:40+0000
2.827 km
极远距离
8.813132E-7 极低风险 0.34